Time,TemperatureF,DewpointF,PressureIn,WindDirection,WindDirectionDegrees,WindSpeedMPH,WindSpeedGustMPH,Humidity,HourlyPrecipIn,Conditions,Clouds,dailyrainin,SoftwareType,DateUTC
2013-02-06 00:00:00,30.9,24.9,30.06,NW,315,6.4,6.4,78,0.00,RA,,0.00,WeatherDisplay:10.37,2013-02-06 06:00:00,
2013-02-06 00:05:00,31.1,24.7,30.06,NW,315,5.8,5.8,77,0.00,RA,,0.00,WeatherDisplay:10.37,2013-02-06 06:05:00,
2013-02-06 00:10:00,31.1,24.7,30.06,NNE,22,4.6,4.6,77,0.00,OVC,,0.00,WeatherDisplay:10.37,2013-02-06 06:10:00,
2013-02-06 00:15:00,31.1,24.7,30.06,NNW,338,4.8,4.8,77,0.00,OVC,,0.00,WeatherDisplay:10.37,2013-02-06 06:15:00,
2013-02-06 00:20:00,31.1,24.4,30.07,NNW,338,4.6,4.6,76,0.00,OVC,,0.00,WeatherDisplay:10.37,2013-02-06 06:20:00,
2013-02-06 00:25:00,31.1,24.4,30.07,NNW,338,4.6,4.6,76,0.00,OVC,,0.00,WeatherDisplay:10.37,2013-02-06 06:25:00,
2013-02-06 00:30:00,31.1,24.1,30.07,North,0,4.6,4.6,75,0.00,OVC,,0.00,WeatherDisplay:10.37,2013-02-06 06:30:00,
2013-02-06 00:35:00,30.7,23.8,30.07,NNW,338,3.5,3.5,75,0.00,OVC,,0.00,WeatherDisplay:10.37,2013-02-06 06:35:00,
2013-02-06 00:40:00,30.7,23.8,30.08,NNE,22,2.3,2.4,75,0.00,OVC,,0.00,WeatherDisplay:10.37,2013-02-06 06:40:00,
2013-02-06 00:45:00,30.7,23.8,30.08,SSW,202,4.6,4.6,75,0.00,OVC,,0.00,WeatherDisplay:10.37,2013-02-06 06:45:00,
2013-02-06 00:50:00,30.7,23.8,30.08,NNW,338,5.2,5.2,75,0.00,OVC,,0.00,WeatherDisplay:10.37,2013-02-06 06:50:00,
2013-02-06 00:55:00,30.7,23.8,30.08,East,90,3.5,3.5,75,0.00,OVC,,0.00,WeatherDisplay:10.37,2013-02-06 06:55:00,
2013-02-06 01:00:00,30.7,23.4,30.09,NW,315,4.6,4.6,74,0.00,OVC,,0.00,WeatherDisplay:10.37,2013-02-06 07:00:00,
2013-02-06 01:05:00,30.7,23.1,30.09,NNW,338,4.6,4.6,73,0.00,OVC,,0.00,WeatherDisplay:10.37,2013-02-06 07:05:00,
2013-02-06 01:10:00,30.7,23.1,30.09,NNW,338,7.1,7.1,73,0.00,OVC,,0.00,WeatherDisplay:10.37,2013-02-06 07:10:00,
2013-02-06 01:15:00,30.6,22.9,30.09,North,0,5.8,5.8,73,0.00,OVC,,0.00,WeatherDisplay:10.37,2013-02-06 07:15:00,
2013-02-06 01:20:00,30.7,23.1,30.10,NW,315,4.6,4.6,73,0.00,OVC,,0.00,WeatherDisplay:10.37,2013-02-06 07:20:00,
2013-02-06 01:25:00,30.6,22.9,30.10,NNW,338,4.3,4.3,73,0.00,OVC,,0.00,WeatherDisplay:10.37,2013-02-06 07:25:00,
2013-02-06 01:30:00,30.6,22.9,30.10,NW,315,6.9,6.9,73,0.00,OVC,,0.00,WeatherDisplay:10.37,2013-02-06 07:30:00,
2013-02-06 01:35:00,30.4,22.8,30.10,NW,315,4.6,4.6,73,0.00,OVC,,0.00,WeatherDisplay:10.37,2013-02-06 07:35:00,
2013-02-06 01:40:00,30.4,22.8,30.11,NW,315,5.1,5.1,73,0.00,OVC,,0.00,WeatherDisplay:10.37,2013-02-06 07:40:00,
2013-02-06 01:45:00,30.4,22.8,30.11,NW,315,6.0,6.0,73,0.00,OVC,,0.00,WeatherDisplay:10.37,2013-02-06 07:45:00,
2013-02-06 01:50:00,30.4,22.8,30.11,WNW,292,4.6,4.6,73,0.00,OVC,,0.00,WeatherDisplay:10.37,2013-02-06 07:50:00,
2013-02-06 01:55:00,30.4,22.8,30.11,NNW,338,6.9,6.9,73,0.00,OVC,,0.00,WeatherDisplay:10.37,2013-02-06 07:55:00,
2013-02-06 02:00:00,30.4,22.8,30.11,WNW,292,3.5,3.5,73,0.00,OVC,,0.00,WeatherDisplay:10.37,2013-02-06 08:00:00,
2013-02-06 02:05:00,30.2,22.3,30.11,NW,315,5.8,5.8,72,0.00,OVC,,0.00,WeatherDisplay:10.37,2013-02-06 08:05:00,
2013-02-06 02:10:00,30.4,22.8,30.11,NNW,338,2.3,2.8,73,0.00,OVC,,0.00,WeatherDisplay:10.37,2013-02-06 08:10:00,
2013-02-06 02:15:00,30.4,22.4,30.11,NW,315,5.8,5.8,72,0.00,OVC,,0.00,WeatherDisplay:10.37,2013-02-06 08:15:00,
2013-02-06 02:20:00,30.0,22.1,30.11,NW,315,4.9,4.9,72,0.00,OVC,,0.00,WeatherDisplay:10.37,2013-02-06 08:20:00,
2013-02-06 02:25:00,30.0,22.4,30.11,WNW,292,4.6,4.6,73,0.00,OVC,,0.00,WeatherDisplay:10.37,2013-02-06 08:25:00,
2013-02-06 02:30:00,30.0,22.4,30.11,NW,315,2.3,2.3,73,0.00,OVC,,0.00,WeatherDisplay:10.37,2013-02-06 08:30:00,
2013-02-06 02:35:00,29.8,22.2,30.11,NW,315,5.4,5.4,73,0.00,OVC,,0.00,WeatherDisplay:10.37,2013-02-06 08:35:00,
2013-02-06 02:40:00,29.8,22.2,30.11,NNW,338,4.6,4.6,73,0.00,OVC,,0.00,WeatherDisplay:10.37,2013-02-06 08:40:00,
2013-02-06 02:45:00,29.8,22.2,30.11,NW,315,2.6,2.6,73,0.00,OVC,,0.00,WeatherDisplay:10.37,2013-02-06 08:45:00,
2013-02-06 02:50:00,29.7,22.1,30.11,NNW,338,2.3,2.3,73,0.00,OVC,,0.00,WeatherDisplay:10.37,2013-02-06 08:50:00,
2013-02-06 02:55:00,29.7,22.1,30.11,North,0,2.3,2.3,73,0.00,OVC,,0.00,WeatherDisplay:10.37,2013-02-06 08:55:00,
2013-02-06 03:01:00,29.7,22.1,30.10,North,0,3.5,3.5,73,0.00,OVC,,0.00,WeatherDisplay:10.37,2013-02-06 09:01:00,
2013-02-06 03:06:00,29.7,22.1,30.10,NW,315,2.8,2.8,73,0.00,OVC,,0.00,WeatherDisplay:10.37,2013-02-06 09:06:00,
2013-02-06 03:11:00,29.7,22.1,30.10,NW,315,2.8,2.8,73,0.00,OVC,,0.00,WeatherDisplay:10.37,2013-02-06 09:11:00,
2013-02-06 03:16:00,29.1,21.5,30.10,NW,315,2.6,2.6,73,0.00,OVC,,0.00,WeatherDisplay:10.37,2013-02-06 09:16:00,
2013-02-06 03:21:00,29.3,21.7,30.10,NW,315,2.5,2.5,73,0.00,OVC,,0.00,WeatherDisplay:10.37,2013-02-06 09:21:00,
2013-02-06 03:26:00,28.9,21.4,30.10,West,270,2.3,2.3,73,0.00,OVC,,0.00,WeatherDisplay:10.37,2013-02-06 09:26:00,
2013-02-06 03:31:00,28.9,21.4,30.10,NW,315,1.2,1.7,73,0.00,OVC,,0.00,WeatherDisplay:10.37,2013-02-06 09:31:00,
2013-02-06 03:36:00,28.2,20.7,30.10,West,270,1.2,1.2,73,0.00,OVC,,0.00,WeatherDisplay:10.37,2013-02-06 09:36:00,
2013-02-06 03:41:00,28.0,20.5,30.11,WSW,248,0.0,0.1,73,0.00,OVC,,0.00,WeatherDisplay:10.37,2013-02-06 09:41:00,
2013-02-06 03:46:00,27.9,20.6,30.11,NW,315,1.2,1.2,74,0.00,OVC,,0.00,WeatherDisplay:10.37,2013-02-06 09:46:00,
2013-02-06 03:51:00,27.9,20.6,30.11,NW,315,2.3,2.3,74,0.00,OVC,,0.00,WeatherDisplay:10.37,2013-02-06 09:51:00,
2013-02-06 03:56:00,27.7,20.8,30.11,WSW,248,1.2,1.2,75,0.00,OVC,,0.00,WeatherDisplay:10.37,2013-02-06 09:56:00,
2013-02-06 04:01:00,27.7,20.8,30.13,West,270,0.0,0.6,75,0.00,OVC,,0.00,WeatherDisplay:10.37,2013-02-06 10:01:00,
2013-02-06 04:06:00,27.9,21.0,30.13,WSW,248,1.2,1.2,75,0.00,OVC,,0.00,WeatherDisplay:10.37,2013-02-06 10:06:00,
2013-02-06 04:11:00,27.7,20.8,30.13,SW,225,1.2,1.2,75,0.00,OVC,,0.00,WeatherDisplay:10.37,2013-02-06 10:11:00,
2013-02-06 04:16:00,27.5,20.6,30.13,West,270,0.0,0.1,75,0.00,OVC,,0.00,WeatherDisplay:10.37,2013-02-06 10:16:00,
2013-02-06 04:21:00,27.5,20.9,30.13,West,270,0.0,0.0,76,0.00,OVC,,0.00,WeatherDisplay:10.37,2013-02-06 10:21:00,
2013-02-06 04:26:00,27.5,20.9,30.13,WNW,292,0.0,0.0,76,0.00,OVC,,0.00,WeatherDisplay:10.37,2013-02-06 10:26:00,
2013-02-06 04:31:00,27.5,20.9,30.13,WSW,248,0.0,0.0,76,0.00,OVC,,0.00,WeatherDisplay:10.37,2013-02-06 10:31:00,
2013-02-06 04:36:00,27.5,21.2,30.13,NW,315,1.6,1.6,77,0.00,OVC,,0.00,WeatherDisplay:10.37,2013-02-06 10:36:00,
2013-02-06 04:41:00,27.5,21.2,30.15,West,270,2.3,2.3,77,0.00,OVC,,0.00,WeatherDisplay:10.37,2013-02-06 10:41:00,
2013-02-06 04:46:00,27.1,20.9,30.15,WSW,248,0.0,0.7,77,0.00,OVC,,0.00,WeatherDisplay:10.37,2013-02-06 10:46:00,
2013-02-06 04:51:00,27.5,21.2,30.15,WNW,292,2.3,2.3,77,0.00,OVC,,0.00,WeatherDisplay:10.37,2013-02-06 10:51:00,
2013-02-06 04:56:00,27.5,21.2,30.15,WSW,248,0.0,0.5,77,0.00,OVC,,0.00,WeatherDisplay:10.37,2013-02-06 10:56:00,
2013-02-06 05:01:00,27.1,20.9,30.16,West,270,0.0,0.1,77,0.00,OVC,,0.00,WeatherDisplay:10.37,2013-02-06 11:01:00,
2013-02-06 05:06:00,27.1,20.9,30.16,West,270,1.2,1.2,77,0.00,OVC,,0.00,WeatherDisplay:10.37,2013-02-06 11:06:00,
2013-02-06 05:11:00,27.0,20.7,30.16,SW,225,0.0,0.3,77,0.00,OVC,,0.00,WeatherDisplay:10.37,2013-02-06 11:11:00,
2013-02-06 05:16:00,27.0,20.7,30.16,NW,315,2.3,2.3,77,0.00,OVC,,0.00,WeatherDisplay:10.37,2013-02-06 11:16:00,
2013-02-06 05:21:00,27.5,21.2,30.16,SE,135,2.3,2.3,77,0.00,OVC,,0.00,WeatherDisplay:10.37,2013-02-06 11:21:00,
2013-02-06 05:26:00,27.5,21.2,30.16,SE,135,2.3,2.3,77,0.00,OVC,,0.00,WeatherDisplay:10.37,2013-02-06 11:26:00,
2013-02-06 05:31:00,27.3,21.1,30.16,SSE,158,2.3,2.3,77,0.00,OVC,,0.00,WeatherDisplay:10.37,2013-02-06 11:31:00,
2013-02-06 05:36:00,27.1,20.9,30.16,SE,135,1.5,1.6,77,0.00,OVC,,0.00,WeatherDisplay:10.37,2013-02-06 11:36:00,
2013-02-06 05:41:00,27.1,20.9,30.16,SSW,202,0.0,1.2,77,0.00,OVC,,0.00,WeatherDisplay:10.37,2013-02-06 11:41:00,
2013-02-06 05:46:00,26.8,20.5,30.16,WSW,248,0.0,0.3,77,0.00,OVC,,0.00,WeatherDisplay:10.37,2013-02-06 11:46:00,
2013-02-06 05:51:00,26.8,20.5,30.16,SW,225,0.0,0.0,77,0.00,OVC,,0.00,WeatherDisplay:10.37,2013-02-06 11:51:00,
2013-02-06 05:56:00,26.4,20.2,30.16,SW,225,0.0,0.3,77,0.00,OVC,,0.00,WeatherDisplay:10.37,2013-02-06 11:56:00,
2013-02-06 06:01:00,26.2,20.0,30.18,SSW,202,0.0,0.3,77,0.00,BKN,,0.00,WeatherDisplay:10.37,2013-02-06 12:01:00,
2013-02-06 06:06:00,26.2,20.0,30.18,SSW,202,1.2,1.2,77,0.00,BKN,,0.00,WeatherDisplay:10.37,2013-02-06 12:06:00,
2013-02-06 06:11:00,26.2,20.0,30.18,SE,135,1.2,1.2,77,0.00,BKN,,0.00,WeatherDisplay:10.37,2013-02-06 12:11:00,
2013-02-06 06:16:00,26.1,20.1,30.18,SE,135,0.0,0.1,78,0.00,BKN,,0.00,WeatherDisplay:10.37,2013-02-06 12:16:00,
2013-02-06 06:21:00,26.1,20.1,30.18,SSE,158,0.0,0.1,78,0.00,BKN,,0.00,WeatherDisplay:10.37,2013-02-06 12:21:00,
2013-02-06 06:26:00,25.3,19.4,30.18,SW,225,0.0,0.0,78,0.00,BKN,,0.00,WeatherDisplay:10.37,2013-02-06 12:26:00,
2013-02-06 06:31:00,25.3,19.4,30.18,SW,225,0.0,0.0,78,0.00,BKN,,0.00,WeatherDisplay:10.37,2013-02-06 12:31:00,
2013-02-06 06:36:00,25.0,19.1,30.18,SSE,158,0.0,0.0,78,0.00,BKN,,0.00,WeatherDisplay:10.37,2013-02-06 12:36:00,
2013-02-06 06:41:00,24.6,18.7,30.18,SSE,158,0.0,0.0,78,0.00,BKN,,0.00,WeatherDisplay:10.37,2013-02-06 12:41:00,
2013-02-06 06:46:00,24.3,18.7,30.18,South,180,0.0,0.0,79,0.00,BKN,,0.00,WeatherDisplay:10.37,2013-02-06 12:46:00,
2013-02-06 06:51:00,23.9,18.3,30.18,SSE,158,0.0,0.0,79,0.00,BKN,,0.00,WeatherDisplay:10.37,2013-02-06 12:51:00,
2013-02-06 06:56:00,23.9,18.3,30.18,SSE,158,0.0,0.0,79,0.00,BKN,,0.00,WeatherDisplay:10.37,2013-02-06 12:56:00,
2013-02-06 07:01:00,23.4,17.8,30.18,SE,135,0.0,0.1,79,0.00,BKN,,0.00,WeatherDisplay:10.37,2013-02-06 13:01:00,
2013-02-06 07:06:00,23.2,17.9,30.18,SE,135,1.2,1.2,80,0.00,BKN,,0.00,WeatherDisplay:10.37,2013-02-06 13:06:00,
2013-02-06 07:11:00,22.6,17.4,30.18,East,90,0.0,0.1,80,0.00,BKN,,0.00,WeatherDisplay:10.37,2013-02-06 13:11:00,
2013-02-06 07:16:00,22.5,17.2,30.18,SE,135,0.0,0.0,80,0.00,BKN,,0.00,WeatherDisplay:10.37,2013-02-06 13:16:00,
2013-02-06 07:21:00,21.9,16.7,30.18,SE,135,0.0,0.0,80,0.00,BKN,,0.00,WeatherDisplay:10.37,2013-02-06 13:21:00,
2013-02-06 07:26:00,21.7,16.5,30.18,ESE,112,0.0,0.0,80,0.00,BKN,,0.00,WeatherDisplay:10.37,2013-02-06 13:26:00,
2013-02-06 07:31:00,21.2,16.0,30.18,ESE,112,0.0,0.0,80,0.00,BKN,,0.00,WeatherDisplay:10.37,2013-02-06 13:31:00,
2013-02-06 07:36:00,21.4,16.5,30.18,SE,135,0.0,0.0,81,0.00,BKN,,0.00,WeatherDisplay:10.37,2013-02-06 13:36:00,
2013-02-06 07:41:00,21.0,16.1,30.19,SE,135,0.0,0.0,81,0.00,BKN,,0.00,WeatherDisplay:10.37,2013-02-06 13:41:00,
2013-02-06 07:46:00,21.0,16.4,30.19,ESE,112,0.0,0.0,82,0.00,BKN,,0.00,WeatherDisplay:10.37,2013-02-06 13:46:00,
2013-02-06 07:51:00,21.0,16.4,30.19,SE,135,0.0,0.0,82,0.00,BKN,,0.00,WeatherDisplay:10.37,2013-02-06 13:51:00,
2013-02-06 07:56:00,21.4,17.0,30.19,ENE,68,2.3,2.3,83,0.00,BKN,,0.00,WeatherDisplay:10.37,2013-02-06 13:56:00,
2013-02-06 08:01:00,21.7,17.4,30.20,SE,135,0.0,0.1,83,0.00,FEW,,0.00,WeatherDisplay:10.37,2013-02-06 14:01:00,
2013-02-06 08:06:00,21.7,17.7,30.20,SSE,158,0.0,0.0,84,0.00,FEW,,0.00,WeatherDisplay:10.37,2013-02-06 14:06:00,
2013-02-06 08:11:00,22.5,18.6,30.20,SSE,158,0.0,0.0,85,0.00,FEW,,0.00,WeatherDisplay:10.37,2013-02-06 14:11:00,
2013-02-06 08:16:00,23.2,19.3,30.20,SSE,158,0.0,0.0,85,0.00,FEW,,0.00,WeatherDisplay:10.37,2013-02-06 14:16:00,
2013-02-06 08:21:00,23.9,20.0,30.23,SSE,158,1.2,1.2,85,0.00,FEW,,0.00,WeatherDisplay:10.37,2013-02-06 14:21:00,
2013-02-06 08:26:00,24.6,21.0,30.23,ESE,112,1.4,1.4,86,0.00,FEW,,0.00,WeatherDisplay:10.37,2013-02-06 14:26:00,
2013-02-06 08:31:00,25.3,21.7,30.23,East,90,2.3,2.3,86,0.00,FEW,,0.00,WeatherDisplay:10.37,2013-02-06 14:31:00,
2013-02-06 08:36:00,26.8,22.6,30.23,ESE,112,1.2,1.2,84,0.00,FEW,,0.00,WeatherDisplay:10.37,2013-02-06 14:36:00,
2013-02-06 08:41:00,27.9,23.4,30.26,SE,135,2.3,2.3,83,0.00,FEW,,0.00,WeatherDisplay:10.37,2013-02-06 14:41:00,
2013-02-06 08:46:00,28.9,24.1,30.26,SSE,158,3.5,3.5,82,0.00,FEW,,0.00,WeatherDisplay:10.37,2013-02-06 14:46:00,
2013-02-06 08:51:00,29.7,23.9,30.26,SE,135,3.8,3.8,79,0.00,FEW,,0.00,WeatherDisplay:10.37,2013-02-06 14:51:00,
2013-02-06 08:56:00,30.0,24.0,30.26,SE,135,3.6,3.6,78,0.00,FEW,,0.00,WeatherDisplay:10.37,2013-02-06 14:56:00,
2013-02-06 09:01:00,30.7,24.4,30.27,SE,135,2.3,2.4,77,0.00,FEW,,0.00,WeatherDisplay:10.37,2013-02-06 15:01:00,
2013-02-06 09:06:00,31.1,24.1,30.27,SSE,158,4.6,4.6,75,0.00,FEW,,0.00,WeatherDisplay:10.37,2013-02-06 15:06:00,
2013-02-06 09:11:00,31.8,24.5,30.27,East,90,4.6,4.6,74,0.00,FEW,,0.00,WeatherDisplay:10.37,2013-02-06 15:11:00,
2013-02-06 09:16:00,32.7,25.0,30.27,South,180,3.5,3.5,73,0.00,FEW,,0.00,WeatherDisplay:10.37,2013-02-06 15:16:00,
2013-02-06 09:21:00,33.6,25.2,30.28,SE,135,3.5,3.5,71,0.00,FEW,,0.00,WeatherDisplay:10.37,2013-02-06 15:21:00,
2013-02-06 09:26:00,34.2,25.0,30.28,SE,135,4.6,4.6,69,0.00,FEW,,0.00,WeatherDisplay:10.37,2013-02-06 15:26:00,
2013-02-06 09:31:00,34.3,24.9,30.28,SSW,202,6.9,6.9,68,0.00,FEW,,0.00,WeatherDisplay:10.37,2013-02-06 15:31:00,
2013-02-06 09:36:00,34.7,24.9,30.28,SSE,158,4.6,4.6,67,0.00,FEW,,0.00,WeatherDisplay:10.37,2013-02-06 15:36:00,
2013-02-06 09:41:00,34.7,24.5,30.28,South,180,3.5,3.5,66,0.00,FEW,,0.00,WeatherDisplay:10.37,2013-02-06 15:41:00,
2013-02-06 09:46:00,34.7,24.5,30.28,SW,225,3.6,3.6,66,0.00,FEW,,0.00,WeatherDisplay:10.37,2013-02-06 15:46:00,
2013-02-06 09:51:00,34.9,24.7,30.28,South,180,3.5,3.5,66,0.00,FEW,,0.00,WeatherDisplay:10.37,2013-02-06 15:51:00,
2013-02-06 09:56:00,35.4,24.4,30.28,SE,135,5.8,5.8,64,0.00,FEW,,0.00,WeatherDisplay:10.37,2013-02-06 15:56:00,
2013-02-06 10:01:00,35.4,24.4,30.28,South,180,5.9,5.9,64,0.00,FEW,,0.03,WeatherDisplay:10.37,2013-02-06 16:01:00,
2013-02-06 10:06:00,35.8,24.8,30.28,South,180,3.5,3.5,64,0.03,RA,,0.03,WeatherDisplay:10.37,2013-02-06 16:06:00,
2013-02-06 10:11:00,36.5,25.1,30.28,South,180,4.6,4.6,63,0.03,RA,,0.03,WeatherDisplay:10.37,2013-02-06 16:11:00,
2013-02-06 10:16:00,36.9,25.0,30.28,South,180,6.9,6.9,62,0.03,FEW,,0.03,WeatherDisplay:10.37,2013-02-06 16:16:00,
2013-02-06 10:22:00,37.0,25.2,30.29,South,180,8.1,8.1,62,0.03,FEW,,0.03,WeatherDisplay:10.37,2013-02-06 16:22:00,
2013-02-06 10:27:00,37.2,25.0,30.29,South,180,5.8,5.8,61,0.03,FEW,,0.03,WeatherDisplay:10.37,2013-02-06 16:27:00,
2013-02-06 10:32:00,37.9,25.7,30.29,South,180,3.5,3.5,61,0.03,FEW,,0.03,WeatherDisplay:10.37,2013-02-06 16:32:00,
2013-02-06 10:37:00,38.3,25.6,30.29,South,180,6.1,6.1,60,0.03,FEW,,0.03,WeatherDisplay:10.37,2013-02-06 16:37:00,
2013-02-06 10:42:00,38.5,25.8,30.29,SW,225,5.8,5.8,60,0.03,FEW,,0.03,WeatherDisplay:10.37,2013-02-06 16:42:00,
2013-02-06 10:47:00,38.8,25.7,30.29,SW,225,4.6,4.6,59,0.03,FEW,,0.03,WeatherDisplay:10.37,2013-02-06 16:47:00,
2013-02-06 10:52:00,38.8,25.7,30.29,South,180,5.8,5.8,59,0.03,FEW,,0.03,WeatherDisplay:10.37,2013-02-06 16:52:00,
2013-02-06 10:57:00,38.7,25.1,30.29,SW,225,4.6,4.6,58,0.03,FEW,,0.03,WeatherDisplay:10.37,2013-02-06 16:57:00,
2013-02-06 11:02:00,39.0,25.5,30.29,SSW,202,5.8,5.8,58,0.03,SKC,,0.03,WeatherDisplay:10.37,2013-02-06 17:02:00,
2013-02-06 11:07:00,39.0,25.5,30.29,SW,225,3.5,4.3,58,0.00,SKC,,0.03,WeatherDisplay:10.37,2013-02-06 17:07:00,
2013-02-06 11:12:00,39.4,25.8,30.29,WNW,292,6.9,6.9,58,0.00,SKC,,0.03,WeatherDisplay:10.37,2013-02-06 17:12:00,
2013-02-06 11:17:00,39.7,26.2,30.29,South,180,4.6,4.6,58,0.00,SKC,,0.03,WeatherDisplay:10.37,2013-02-06 17:17:00,
2013-02-06 11:22:00,39.7,25.7,30.28,SE,135,6.9,6.9,57,0.00,SKC,,0.03,WeatherDisplay:10.37,2013-02-06 17:22:00,
2013-02-06 11:27:00,39.6,25.6,30.28,SE,135,8.1,8.1,57,0.00,SKC,,0.03,WeatherDisplay:10.37,2013-02-06 17:27:00,
2013-02-06 11:32:00,39.7,25.7,30.28,ESE,112,6.9,6.9,57,0.00,SKC,,0.03,WeatherDisplay:10.37,2013-02-06 17:32:00,
2013-02-06 11:37:00,39.9,25.9,30.28,South,180,9.2,9.2,57,0.00,SKC,,0.03,WeatherDisplay:10.37,2013-02-06 17:37:00,
2013-02-06 11:42:00,39.9,25.9,30.26,East,90,8.1,8.1,57,0.03,RA,,0.06,WeatherDisplay:10.37,2013-02-06 17:42:00,
2013-02-06 11:47:00,39.9,25.5,30.26,SE,135,6.9,6.9,56,0.03,RA,,0.06,WeatherDisplay:10.37,2013-02-06 17:47:00,
2013-02-06 11:52:00,40.3,26.2,30.26,SSE,158,5.8,5.8,57,0.03,SKC,,0.06,WeatherDisplay:10.37,2013-02-06 17:52:00,
2013-02-06 11:57:00,40.5,26.0,30.26,NE,45,6.9,6.9,56,0.03,SKC,,0.06,WeatherDisplay:10.37,2013-02-06 17:57:00,
2013-02-06 12:02:00,39.9,25.5,30.26,SSE,158,4.6,4.6,56,0.03,SKC,,0.06,WeatherDisplay:10.37,2013-02-06 18:02:00,
2013-02-06 12:07:00,39.9,25.5,30.26,SSE,158,3.9,3.9,56,0.03,SKC,,0.06,WeatherDisplay:10.37,2013-02-06 18:07:00,
2013-02-06 12:12:00,40.8,26.3,30.26,SSE,158,4.6,4.6,56,0.03,SKC,,0.06,WeatherDisplay:10.37,2013-02-06 18:12:00,
2013-02-06 12:17:00,40.1,25.6,30.26,SSE,158,8.1,8.1,56,0.03,SKC,,0.06,WeatherDisplay:10.37,2013-02-06 18:17:00,
2013-02-06 12:22:00,40.1,25.6,30.26,SSE,158,4.6,4.6,56,0.03,SKC,,0.06,WeatherDisplay:10.37,2013-02-06 18:22:00,
2013-02-06 12:27:00,40.5,26.0,30.26,South,180,4.6,4.6,56,0.03,SKC,,0.06,WeatherDisplay:10.37,2013-02-06 18:27:00,
2013-02-06 12:32:00,40.8,26.7,30.26,WSW,248,7.2,7.2,57,0.03,SKC,,0.06,WeatherDisplay:10.37,2013-02-06 18:32:00,
2013-02-06 12:37:00,40.8,26.7,30.26,South,180,2.3,3.5,57,0.03,SKC,,0.06,WeatherDisplay:10.37,2013-02-06 18:37:00,
2013-02-06 12:42:00,41.2,26.7,30.26,SSW,202,4.6,4.6,56,0.00,SKC,,0.06,WeatherDisplay:10.37,2013-02-06 18:42:00,
2013-02-06 12:47:00,40.6,26.2,30.26,WSW,248,4.6,4.6,56,0.00,SKC,,0.06,WeatherDisplay:10.37,2013-02-06 18:47:00,
2013-02-06 12:52:00,40.8,26.3,30.26,WSW,248,5.8,5.8,56,0.00,SKC,,0.06,WeatherDisplay:10.37,2013-02-06 18:52:00,
2013-02-06 12:57:00,40.8,26.7,30.26,WSW,248,4.6,4.6,57,0.00,SKC,,0.06,WeatherDisplay:10.37,2013-02-06 18:57:00,
2013-02-06 13:02:00,41.0,26.9,30.26,West,270,3.5,3.5,57,0.00,SKC,,0.06,WeatherDisplay:10.37,2013-02-06 19:02:00,
2013-02-06 13:07:00,41.4,26.8,30.26,SSE,158,5.8,5.8,56,0.00,SKC,,0.06,WeatherDisplay:10.37,2013-02-06 19:07:00,
2013-02-06 13:12:00,41.4,26.8,30.26,South,180,11.5,11.5,56,0.00,SKC,,0.06,WeatherDisplay:10.37,2013-02-06 19:12:00,
2013-02-06 13:17:00,40.6,26.2,30.26,SW,225,6.9,6.9,56,0.00,SKC,,0.06,WeatherDisplay:10.37,2013-02-06 19:17:00,
2013-02-06 13:22:00,41.2,27.1,30.26,SSW,202,9.4,9.4,57,0.00,SKC,,0.06,WeatherDisplay:10.37,2013-02-06 19:22:00,
2013-02-06 13:27:00,41.2,26.7,30.26,South,180,4.6,4.6,56,0.00,SKC,,0.06,WeatherDisplay:10.37,2013-02-06 19:27:00,
2013-02-06 13:32:00,40.8,26.3,30.26,South,180,8.1,8.1,56,0.00,SKC,,0.06,WeatherDisplay:10.37,2013-02-06 19:32:00,
2013-02-06 13:37:00,40.6,26.2,30.26,SW,225,10.4,10.4,56,0.00,SKC,,0.06,WeatherDisplay:10.37,2013-02-06 19:37:00,
2013-02-06 13:42:00,40.5,26.4,30.26,SW,225,5.8,5.8,57,0.00,SKC,,0.06,WeatherDisplay:10.37,2013-02-06 19:42:00,
2013-02-06 13:47:00,40.6,26.6,30.26,South,180,7.0,7.0,57,0.00,SKC,,0.06,WeatherDisplay:10.37,2013-02-06 19:47:00,
2013-02-06 13:52:00,40.6,26.6,30.26,SSE,158,6.9,6.9,57,0.00,SKC,,0.06,WeatherDisplay:10.37,2013-02-06 19:52:00,
2013-02-06 13:57:00,40.8,26.7,30.26,SSE,158,8.1,8.1,57,0.00,SKC,,0.06,WeatherDisplay:10.37,2013-02-06 19:57:00,
2013-02-06 14:02:00,40.6,26.6,30.24,SSW,202,5.8,5.8,57,0.00,FEW,,0.06,WeatherDisplay:10.37,2013-02-06 20:02:00,
2013-02-06 14:07:00,40.6,27.0,30.24,NNE,22,4.6,4.6,58,0.00,FEW,,0.06,WeatherDisplay:10.37,2013-02-06 20:07:00,
2013-02-06 14:12:00,41.2,27.5,30.24,South,180,6.9,6.9,58,0.00,FEW,,0.06,WeatherDisplay:10.37,2013-02-06 20:12:00,
2013-02-06 14:17:00,41.0,26.9,30.24,SSE,158,8.1,8.1,57,0.00,FEW,,0.06,WeatherDisplay:10.37,2013-02-06 20:17:00,
2013-02-06 14:22:00,40.8,27.2,30.25,SSE,158,4.6,4.6,58,0.00,FEW,,0.06,WeatherDisplay:10.37,2013-02-06 20:22:00,
2013-02-06 14:27:00,41.4,27.7,30.25,SSE,158,5.8,5.8,58,0.00,FEW,,0.06,WeatherDisplay:10.37,2013-02-06 20:27:00,
2013-02-06 14:33:00,40.6,27.0,30.25,SE,135,2.3,3.2,58,0.00,FEW,,0.06,WeatherDisplay:10.37,2013-02-06 20:33:00,
2013-02-06 14:38:00,39.7,26.2,30.25,South,180,7.8,7.8,58,0.00,FEW,,0.06,WeatherDisplay:10.37,2013-02-06 20:38:00,
2013-02-06 14:43:00,39.4,26.2,30.24,South,180,2.5,4.0,59,0.00,FEW,,0.06,WeatherDisplay:10.37,2013-02-06 20:43:00,
2013-02-06 14:48:00,39.9,27.1,30.24,SSW,202,5.8,5.8,60,0.00,FEW,,0.06,WeatherDisplay:10.37,2013-02-06 20:48:00,
2013-02-06 14:53:00,40.1,27.3,30.24,NW,315,6.9,6.9,60,0.00,FEW,,0.06,WeatherDisplay:10.37,2013-02-06 20:53:00,
2013-02-06 14:58:00,40.1,27.7,30.24,SSW,202,5.8,5.8,61,0.00,FEW,,0.06,WeatherDisplay:10.37,2013-02-06 20:58:00,
2013-02-06 15:03:00,40.5,28.1,30.24,South,180,6.0,6.0,61,0.00,FEW,,0.06,WeatherDisplay:10.37,2013-02-06 21:03:00,
2013-02-06 15:08:00,39.9,27.5,30.24,SE,135,8.1,8.1,61,0.00,FEW,,0.06,WeatherDisplay:10.37,2013-02-06 21:08:00,
2013-02-06 15:13:00,39.7,27.4,30.24,South,180,9.2,9.2,61,0.00,FEW,,0.06,WeatherDisplay:10.37,2013-02-06 21:13:00,
2013-02-06 15:18:00,39.6,27.2,30.24,South,180,9.2,9.2,61,0.00,FEW,,0.06,WeatherDisplay:10.37,2013-02-06 21:18:00,
2013-02-06 15:23:00,39.9,27.5,30.23,South,180,7.2,7.2,61,0.00,FEW,,0.06,WeatherDisplay:10.37,2013-02-06 21:23:00,
2013-02-06 15:28:00,39.4,27.0,30.23,South,180,6.9,6.9,61,0.00,FEW,,0.06,WeatherDisplay:10.37,2013-02-06 21:28:00,
2013-02-06 15:33:00,39.2,27.3,30.23,South,180,6.9,6.9,62,0.00,FEW,,0.06,WeatherDisplay:10.37,2013-02-06 21:33:00,
2013-02-06 15:38:00,38.8,27.3,30.23,South,180,6.9,6.9,63,0.00,FEW,,0.06,WeatherDisplay:10.37,2013-02-06 21:38:00,
2013-02-06 15:43:00,39.0,27.5,30.23,ESE,112,5.8,5.8,63,0.00,FEW,,0.06,WeatherDisplay:10.37,2013-02-06 21:43:00,
2013-02-06 15:48:00,39.0,27.9,30.23,SW,225,5.8,5.8,64,0.00,FEW,,0.06,WeatherDisplay:10.37,2013-02-06 21:48:00,
2013-02-06 15:53:00,39.0,27.9,30.23,WSW,248,3.5,3.5,64,0.00,FEW,,0.06,WeatherDisplay:10.37,2013-02-06 21:53:00,
2013-02-06 15:58:00,39.0,27.9,30.23,SW,225,4.6,4.6,64,0.00,FEW,,0.06,WeatherDisplay:10.37,2013-02-06 21:58:00,
2013-02-06 16:03:00,39.0,27.9,30.24,WSW,248,5.8,5.8,64,0.00,BKN,,0.06,WeatherDisplay:10.37,2013-02-06 22:03:00,
2013-02-06 16:08:00,38.5,27.7,30.24,SE,135,3.5,3.5,65,0.00,BKN,,0.06,WeatherDisplay:10.37,2013-02-06 22:08:00,
2013-02-06 16:13:00,38.3,27.6,30.24,South,180,4.6,4.6,65,0.00,BKN,,0.06,WeatherDisplay:10.37,2013-02-06 22:13:00,
2013-02-06 16:18:00,38.3,27.9,30.24,SE,135,4.6,4.6,66,0.00,BKN,,0.06,WeatherDisplay:10.37,2013-02-06 22:18:00,
2013-02-06 16:23:00,38.1,27.8,30.23,SSE,158,3.5,3.5,66,0.00,BKN,,0.06,WeatherDisplay:10.37,2013-02-06 22:23:00,
2013-02-06 16:28:00,37.8,27.4,30.23,South,180,4.6,4.6,66,0.00,BKN,,0.06,WeatherDisplay:10.37,2013-02-06 22:28:00,
2013-02-06 16:33:00,37.8,27.8,30.23,South,180,5.8,5.8,67,0.00,BKN,,0.06,WeatherDisplay:10.37,2013-02-06 22:33:00,
2013-02-06 16:38:00,37.8,27.8,30.23,South,180,9.2,9.2,67,0.00,BKN,,0.06,WeatherDisplay:10.37,2013-02-06 22:38:00,
2013-02-06 16:43:00,37.6,27.6,30.22,SE,135,3.5,3.5,67,0.00,BKN,,0.06,WeatherDisplay:10.37,2013-02-06 22:43:00,
2013-02-06 16:48:00,37.6,28.0,30.22,SSW,202,7.4,7.4,68,0.00,BKN,,0.06,WeatherDisplay:10.37,2013-02-06 22:48:00,
2013-02-06 16:53:00,37.2,27.6,30.22,SSW,202,5.8,5.8,68,0.00,BKN,,0.06,WeatherDisplay:10.37,2013-02-06 22:53:00,
2013-02-06 16:58:00,37.0,27.5,30.22,SE,135,4.6,4.6,68,0.00,BKN,,0.06,WeatherDisplay:10.37,2013-02-06 22:58:00,
2013-02-06 17:03:00,36.9,27.6,30.19,South,180,4.6,4.6,69,0.00,BKN,,0.06,WeatherDisplay:10.37,2013-02-06 23:03:00,
2013-02-06 17:08:00,36.7,27.5,30.19,South,180,3.5,3.5,69,0.00,BKN,,0.06,WeatherDisplay:10.37,2013-02-06 23:08:00,
2013-02-06 17:13:00,36.5,27.3,30.19,South,180,2.3,2.3,69,0.00,BKN,,0.06,WeatherDisplay:10.37,2013-02-06 23:13:00,
2013-02-06 17:18:00,36.3,27.5,30.19,South,180,2.9,2.9,70,0.00,BKN,,0.06,WeatherDisplay:10.37,2013-02-06 23:18:00,
2013-02-06 17:23:00,36.3,27.5,30.17,South,180,3.9,3.9,70,0.00,BKN,,0.06,WeatherDisplay:10.37,2013-02-06 23:23:00,
2013-02-06 17:28:00,36.1,27.3,30.17,SE,135,2.3,2.3,70,0.00,BKN,,0.06,WeatherDisplay:10.37,2013-02-06 23:28:00,
2013-02-06 17:33:00,35.8,26.9,30.17,SE,135,3.5,3.5,70,0.00,BKN,,0.06,WeatherDisplay:10.37,2013-02-06 23:33:00,
2013-02-06 17:38:00,35.6,27.1,30.17,SE,135,2.3,2.3,71,0.00,BKN,,0.06,WeatherDisplay:10.37,2013-02-06 23:38:00,
2013-02-06 17:43:00,35.6,27.1,30.16,SE,135,3.5,3.5,71,0.00,BKN,,0.06,WeatherDisplay:10.37,2013-02-06 23:43:00,
2013-02-06 17:48:00,35.4,27.3,30.16,NNW,338,2.3,2.3,72,0.00,BKN,,0.06,WeatherDisplay:10.37,2013-02-06 23:48:00,
2013-02-06 17:53:00,35.4,27.3,30.16,SE,135,3.5,3.5,72,0.00,BKN,,0.06,WeatherDisplay:10.37,2013-02-06 23:53:00,
2013-02-06 17:58:00,35.4,27.3,30.16,SSE,158,3.5,3.5,72,0.00,BKN,,0.06,WeatherDisplay:10.37,2013-02-06 23:58:00,
2013-02-06 18:03:00,35.4,27.3,30.16,South,180,4.7,4.7,72,0.00,BKN,,0.06,WeatherDisplay:10.37,2013-02-07 00:03:00,
2013-02-06 18:08:00,35.2,27.1,30.16,SE,135,3.5,3.5,72,0.00,BKN,,0.06,WeatherDisplay:10.37,2013-02-07 00:08:00,
2013-02-06 18:13:00,35.4,27.6,30.16,NE,45,4.6,4.6,73,0.00,BKN,,0.06,WeatherDisplay:10.37,2013-02-07 00:13:00,
2013-02-06 18:18:00,35.4,27.6,30.16,ESE,112,4.6,4.6,73,0.00,BKN,,0.06,WeatherDisplay:10.37,2013-02-07 00:18:00,
2013-02-06 18:23:00,35.2,27.4,30.17,SE,135,4.6,4.6,73,0.00,BKN,,0.06,WeatherDisplay:10.37,2013-02-07 00:23:00,
2013-02-06 18:28:00,35.1,27.3,30.17,SE,135,3.5,3.5,73,0.00,BKN,,0.06,WeatherDisplay:10.37,2013-02-07 00:28:00,
2013-02-06 18:33:00,35.1,27.3,30.17,NNW,338,5.1,5.1,73,0.00,BKN,,0.06,WeatherDisplay:10.37,2013-02-07 00:33:00,
2013-02-06 18:38:00,35.1,27.6,30.17,SSE,158,3.5,3.5,74,0.00,BKN,,0.06,WeatherDisplay:10.37,2013-02-07 00:38:00,
2013-02-06 18:43:00,35.1,27.6,30.14,SE,135,4.9,4.9,74,0.00,BKN,,0.06,WeatherDisplay:10.37,2013-02-07 00:43:00,
2013-02-06 18:48:00,35.1,27.6,30.14,SE,135,4.6,4.6,74,0.00,BKN,,0.06,WeatherDisplay:10.37,2013-02-07 00:48:00,
2013-02-06 18:53:00,35.1,27.6,30.14,ESE,112,4.6,4.6,74,0.00,BKN,,0.06,WeatherDisplay:10.37,2013-02-07 00:53:00,
2013-02-06 18:58:00,35.1,27.6,30.14,South,180,5.8,5.8,74,0.00,BKN,,0.06,WeatherDisplay:10.37,2013-02-07 00:58:00,
2013-02-06 19:03:00,35.1,27.6,30.15,SSE,158,3.8,3.8,74,0.00,BKN,,0.06,WeatherDisplay:10.37,2013-02-07 01:03:00,
2013-02-06 19:08:00,35.1,27.6,30.15,ESE,112,3.5,3.5,74,0.00,BKN,,0.06,WeatherDisplay:10.37,2013-02-07 01:08:00,
2013-02-06 19:13:00,34.9,27.4,30.15,SSE,158,3.9,3.9,74,0.00,BKN,,0.06,WeatherDisplay:10.37,2013-02-07 01:13:00,
2013-02-06 19:18:00,34.9,27.4,30.15,SSE,158,4.6,4.6,74,0.00,BKN,,0.06,WeatherDisplay:10.37,2013-02-07 01:18:00,
2013-02-06 19:23:00,34.9,27.4,30.15,SE,135,4.6,4.6,74,0.00,BKN,,0.06,WeatherDisplay:10.37,2013-02-07 01:23:00,
2013-02-06 19:28:00,34.9,27.4,30.15,South,180,3.5,3.5,74,0.00,BKN,,0.06,WeatherDisplay:10.37,2013-02-07 01:28:00,
2013-02-06 19:33:00,34.9,27.4,30.15,South,180,3.5,3.5,74,0.00,BKN,,0.06,WeatherDisplay:10.37,2013-02-07 01:33:00,
2013-02-06 19:38:00,35.1,27.6,30.15,SE,135,4.6,4.6,74,0.00,BKN,,0.06,WeatherDisplay:10.37,2013-02-07 01:38:00,
2013-02-06 19:43:00,34.9,27.4,30.14,SE,135,7.5,7.5,74,0.00,BKN,,0.06,WeatherDisplay:10.37,2013-02-07 01:43:00,
2013-02-06 19:48:00,35.1,27.9,30.14,SE,135,6.9,6.9,75,0.00,BKN,,0.06,WeatherDisplay:10.37,2013-02-07 01:48:00,
2013-02-06 19:53:00,35.1,27.9,30.14,SSE,158,6.9,6.9,75,0.00,BKN,,0.06,WeatherDisplay:10.37,2013-02-07 01:53:00,
2013-02-06 19:58:00,34.9,27.8,30.14,SE,135,9.2,9.2,75,0.00,BKN,,0.06,WeatherDisplay:10.37,2013-02-07 01:58:00,
2013-02-06 20:03:00,34.9,27.8,30.14,South,180,4.6,4.6,75,0.00,SCT,,0.06,WeatherDisplay:10.37,2013-02-07 02:03:00,
2013-02-06 20:08:00,34.9,27.8,30.14,South,180,6.9,6.9,75,0.00,SCT,,0.06,WeatherDisplay:10.37,2013-02-07 02:08:00,
2013-02-06 20:13:00,34.7,27.6,30.14,SE,135,8.1,8.1,75,0.00,SCT,,0.06,WeatherDisplay:10.37,2013-02-07 02:13:00,
2013-02-06 20:18:00,34.7,27.6,30.14,SE,135,7.4,7.4,75,0.00,SCT,,0.06,WeatherDisplay:10.37,2013-02-07 02:18:00,
2013-02-06 20:23:00,34.7,27.6,30.13,SSE,158,3.5,3.6,75,0.00,SCT,,0.06,WeatherDisplay:10.37,2013-02-07 02:23:00,
2013-02-06 20:28:00,34.7,27.9,30.13,South,180,3.6,3.8,76,0.00,SCT,,0.06,WeatherDisplay:10.37,2013-02-07 02:28:00,
2013-02-06 20:33:00,34.5,27.4,30.13,South,180,6.9,6.9,75,0.00,SCT,,0.06,WeatherDisplay:10.37,2013-02-07 02:33:00,
2013-02-06 20:38:00,34.5,27.7,30.13,SE,135,5.8,5.8,76,0.00,SCT,,0.06,WeatherDisplay:10.37,2013-02-07 02:38:00,
2013-02-06 20:43:00,34.7,27.9,30.13,SE,135,4.6,4.6,76,0.00,SCT,,0.06,WeatherDisplay:10.37,2013-02-07 02:43:00,
2013-02-06 20:48:00,34.7,27.9,30.13,South,180,5.9,5.9,76,0.00,SCT,,0.06,WeatherDisplay:10.37,2013-02-07 02:48:00,
2013-02-06 20:53:00,34.7,27.9,30.13,SSE,158,8.1,8.1,76,0.00,SCT,,0.06,WeatherDisplay:10.37,2013-02-07 02:53:00,
2013-02-06 20:58:00,34.7,27.9,30.13,SE,135,4.6,4.6,76,0.00,SCT,,0.06,WeatherDisplay:10.37,2013-02-07 02:58:00,
2013-02-06 21:03:00,34.5,27.7,30.12,SE,135,6.9,6.9,76,0.00,OVC,,0.06,WeatherDisplay:10.37,2013-02-07 03:03:00,
2013-02-06 21:08:00,34.7,27.9,30.12,SSE,158,3.6,4.5,76,0.00,OVC,,0.06,WeatherDisplay:10.37,2013-02-07 03:08:00,
2013-02-06 21:13:00,34.7,27.9,30.12,South,180,4.6,4.6,76,0.00,OVC,,0.06,WeatherDisplay:10.37,2013-02-07 03:13:00,
2013-02-06 21:18:00,34.7,27.9,30.12,South,180,3.5,3.5,76,0.00,OVC,,0.06,WeatherDisplay:10.37,2013-02-07 03:18:00,
2013-02-06 21:23:00,34.7,28.2,30.13,South,180,4.6,4.6,77,0.00,OVC,,0.06,WeatherDisplay:10.37,2013-02-07 03:23:00,
2013-02-06 21:28:00,34.5,28.1,30.13,SSE,158,3.5,3.5,77,0.00,OVC,,0.06,WeatherDisplay:10.37,2013-02-07 03:28:00,
2013-02-06 21:33:00,34.7,28.2,30.13,SSE,158,2.3,3.3,77,0.00,OVC,,0.06,WeatherDisplay:10.37,2013-02-07 03:33:00,
2013-02-06 21:38:00,34.7,28.2,30.13,SSE,158,4.6,4.6,77,0.00,OVC,,0.06,WeatherDisplay:10.37,2013-02-07 03:38:00,
2013-02-06 21:44:00,34.5,28.1,30.13,SE,135,10.4,10.4,77,0.00,OVC,,0.06,WeatherDisplay:10.37,2013-02-07 03:44:00,
2013-02-06 21:49:00,34.5,28.1,30.13,SW,225,4.7,4.7,77,0.00,OVC,,0.06,WeatherDisplay:10.37,2013-02-07 03:49:00,
2013-02-06 21:54:00,34.5,28.1,30.13,South,180,9.2,9.2,77,0.00,OVC,,0.06,WeatherDisplay:10.37,2013-02-07 03:54:00,
2013-02-06 21:59:00,34.3,27.9,30.13,SSE,158,5.8,5.8,77,0.00,OVC,,0.06,WeatherDisplay:10.37,2013-02-07 03:59:00,
2013-02-06 22:04:00,34.5,28.1,30.12,ESE,112,8.3,8.3,77,0.00,SCT,,0.06,WeatherDisplay:10.37,2013-02-07 04:04:00,
2013-02-06 22:09:00,34.5,28.1,30.12,South,180,6.9,6.9,77,0.00,SCT,,0.06,WeatherDisplay:10.37,2013-02-07 04:09:00,
2013-02-06 22:14:00,34.3,27.9,30.12,South,180,5.8,5.8,77,0.00,SCT,,0.06,WeatherDisplay:10.37,2013-02-07 04:14:00,
2013-02-06 22:19:00,34.5,28.1,30.12,South,180,4.6,4.6,77,0.00,SCT,,0.06,WeatherDisplay:10.37,2013-02-07 04:19:00,
2013-02-06 22:24:00,34.3,27.9,30.13,SE,135,3.5,3.8,77,0.00,SCT,,0.06,WeatherDisplay:10.37,2013-02-07 04:24:00,
2013-02-06 22:29:00,34.3,27.9,30.13,ENE,68,9.2,9.2,77,0.00,SCT,,0.06,WeatherDisplay:10.37,2013-02-07 04:29:00,
2013-02-06 22:34:00,34.3,27.9,30.13,SE,135,8.1,8.1,77,0.00,SCT,,0.06,WeatherDisplay:10.37,2013-02-07 04:34:00,
2013-02-06 22:39:00,34.3,27.9,30.13,South,180,3.8,3.8,77,0.00,SCT,,0.06,WeatherDisplay:10.37,2013-02-07 04:39:00,
2013-02-06 22:44:00,34.3,28.2,30.14,South,180,3.5,3.5,78,0.00,SCT,,0.06,WeatherDisplay:10.37,2013-02-07 04:44:00,
2013-02-06 22:49:00,34.3,28.2,30.14,SSE,158,3.5,3.5,78,0.00,SCT,,0.06,WeatherDisplay:10.37,2013-02-07 04:49:00,
2013-02-06 22:54:00,34.3,28.2,30.14,SE,135,6.9,6.9,78,0.00,SCT,,0.06,WeatherDisplay:10.37,2013-02-07 04:54:00,
2013-02-06 22:59:00,34.3,28.2,30.14,SE,135,4.6,4.6,78,0.00,SCT,,0.06,WeatherDisplay:10.37,2013-02-07 04:59:00,
2013-02-06 23:00:00,34.3,28.2,30.14,SW,225,4.6,4.6,78,0.00,SCT,,0.06,WeatherDisplay:10.37,2013-02-07 05:00:00,
2013-02-06 23:05:00,34.3,28.2,30.14,SE,135,5.8,5.8,78,0.00,SCT,,0.06,WeatherDisplay:10.37,2013-02-07 05:05:00,
2013-02-06 23:10:00,34.2,28.0,30.14,SE,135,4.7,4.7,78,0.00,SCT,,0.06,WeatherDisplay:10.37,2013-02-07 05:10:00,
2013-02-06 23:15:00,34.2,28.0,30.14,SE,135,5.8,5.8,78,0.00,SCT,,0.06,WeatherDisplay:10.37,2013-02-07 05:15:00,
2013-02-06 23:20:00,34.3,28.2,30.12,SE,135,5.8,5.8,78,0.00,SCT,,0.06,WeatherDisplay:10.37,2013-02-07 05:20:00,
2013-02-06 23:25:00,34.2,28.0,30.12,South,180,5.8,5.8,78,0.00,SCT,,0.06,WeatherDisplay:10.37,2013-02-07 05:25:00,
2013-02-06 23:30:00,34.0,27.8,30.12,South,180,5.8,5.8,78,0.00,SCT,,0.06,WeatherDisplay:10.37,2013-02-07 05:30:00,
2013-02-06 23:35:00,34.0,27.8,30.12,South,180,3.5,3.5,78,0.00,SCT,,0.06,WeatherDisplay:10.37,2013-02-07 05:35:00,
2013-02-06 23:40:00,33.8,27.7,30.13,South,180,5.8,5.8,78,0.00,SCT,,0.06,WeatherDisplay:10.37,2013-02-07 05:40:00,
2013-02-06 23:45:00,34.0,28.2,30.13,South,180,2.3,2.6,79,0.00,SCT,,0.06,WeatherDisplay:10.37,2013-02-07 05:45:00,
2013-02-06 23:50:00,33.8,28.0,30.13,SSE,158,4.6,4.6,79,0.00,SCT,,0.06,WeatherDisplay:10.37,2013-02-07 05:50:00,
2013-02-06 23:55:00,33.8,28.0,30.13,SE,135,3.5,3.5,79,0.00,SCT,,0.06,WeatherDisplay:10.37,2013-02-07 05:55:00,